Regional Weather Roundup
Issued by NWS

Home | Current Version | Previous Version | Graphics & Text | Print | Product List | Glossary On
Versions: 1 2 3 4 5 6 7 8 9 10 11 12 13 14 15 16 17 18 19 20 21 22 23 24 25 26 27
000
ASUS45 KCYS 312110
RWRWY

WYOMING REGIONAL WEATHER ROUNDUP
NATIONAL WEATHER SERVICE CHEYENNE WY
300 PM MDT WED AUG 31 2016

NOTE:  "FAIR" INDICATES FEW OR NO CLOUDS BELOW 12,000 FEET
WITH NO SIGNIFICANT WEATHER AND/OR OBSTRUCTIONS TO VISIBILITY.

WYZ001-312200-
YELLOWSTONE NATIONAL PARK

CITY           SKY/WX    TMP DP  RH WIND       PRES   REMARKS
LK YELLOWSTONE   N/A     75  34  22 E6        30.31F
W YELLOWSTONE  NOT AVBL

$$
WYZ002>013-054>058-071-098>099-312200-
NORTHERN WYOMING

CITY           SKY/WX    TMP DP  RH WIND       PRES   REMARKS
JACKSON        SUNNY     86  28  12 S12G17    30.18F
CODY           FAIR      90  34  13 E9        30.08F
GREYBULL       FAIR      94  25   8 MISG      30.00F
WORLAND        FAIR      95  25   8 S14       30.02F
SHERIDAN       FAIR      95  29   9 SE22G29   30.01F
BUFFALO        FAIR      91  31  11 S17G29    30.13F
GILLETTE       FAIR      85  44  23 SE24G30   30.14F
HULETT         FAIR      86  43  22 SE18G25   30.16F
NEWCASTLE      FAIR      79  46  31 SE18G29   30.21F

$$
WYZ014>020-022>026-101>103-312200-
CENTRAL WYOMING

CITY           SKY/WX    TMP DP  RH WIND       PRES   REMARKS
BIG PINEY      FAIR      82  22  11 CALM      30.26F
PINEDALE       FAIR      81  23  12 W3        30.27F
DUBOIS         FAIR      77  25  14 SE10G17   30.24F
LANDER         FAIR      89  33  13 E8        30.13F
RIVERTON       FAIR      87  36  16 VRB7      30.15F
CASPER         FAIR      86  38  18 E15       30.17F
DOUGLAS        FAIR      82  50  32 SE21G30   30.19F

$$
WYZ021-027>030-104>119-312200-
SOUTHERN WYOMING

CITY           SKY/WX    TMP DP  RH WIND       PRES   REMARKS
EVANSTON       FAIR      81  24  12 SW9       30.26S
FORT BRIDGER   MOCLDY    83  25  12 E5        30.29F
ROCK SPRINGS   FAIR      83  24  11 VRB6      30.24F
DIXON          FAIR      85  29  13 W6G16     30.26F
RAWLINS        FAIR      81  32  17 SE5       30.27F
SARATOGA       FAIR      81  28  15 E6        30.29F
LARAMIE        FAIR      78  28  16 SW6       30.30F
CHEYENNE       FAIR      74  51  44 SE12      30.29F
TORRINGTON     FAIR      80  56  43 SE14G22   30.19F
PINE BLUFFS    FAIR      75  48  38 S5        30.26F

$$




USA.gov is the U.S. government's official web portal to all federal, state and local government web resources and services.